Location: Unspecified
(33.6682°S, 0.0000°E)
Time: 02:29:19
(UTC+00:00)

Vanguard 2 Rocket - Pass Details

Date: 18 June 2019
Orbit: 554 x 3326 km, 32.9° (Epoch: 22 July)

Event Time Altitude Azimuth Distance (km) Brightness Sun altitude
Rises 13:07:44 0° 268° (W) 4,536 10.7 30.8°
Reaches altitude 10° 13:11:26 10° 268° (W) 3,132 9.9 30.5°
Maximum altitude 13:18:31 82° 355° (N) 814 7.3 30.0°
Drops below altitude 10° 13:22:59 10° 82° (E) 2,021 8.7 29.7°
Sets 13:24:56 0° 82° (E) 2,819 9.3 29.5°
